Regional Weather Roundup
Issued by NWS

Home | Current Version | Previous Version | Graphics & Text | Print | Product List | Glossary On
Versions: 1 2 3 4 5 6 7 8 9 10 11 12 13 14 15 16 17 18 19 20 21 22 23 24 25 26 27 28 29 30 31 32 33 34 35 36 37 38 39 40 41 42 43 44 45 46 47 48 49 50
431
ASUS43 KLMK 190102
RWRKY
KENTUCKY REGIONAL WEATHER ROUNDUP
NATIONAL WEATHER SERVICE LOUISVILLE KY
900 PM EDT WED APR 18 2018

NOTE "FAIR" INDICATES FEW OR NO CLOUDS BELOW 12,000 FEET
WITH NO SIGNIFICANT WEATHER AND/OR OBSTRUCTIONS TO VISIBILITY.

KYZ001>023-026-027-061>063-070>075-190200-
WESTERN AND SOUTH CENTRAL KENTUCKY

CITY           SKY/WX    TMP DP  RH WIND       PRES   REMARKS
PADUCAH        FAIR      67  37  33 W16G26    29.85R
HENDERSON      FAIR      58  43  57 NW28      29.85R
OWENSBORO      FAIR      60  45  57 NW21      29.83R
HOPKINSVILLE   FAIR      71  34  26 W12       29.80R
BOWLING GREEN  CLOUDY    72  58  61 SW10      29.78R
GLASGOW        NOT AVBL
$$

KYZ024-025-028>034-038-045-046-053-190200-
NORTH CENTRAL KENTUCKY

CITY           SKY/WX    TMP DP  RH WIND       PRES   REMARKS
LOUISVILLE/SDF MOCLDY    63  50  62 NW22G36   29.75R
LOUISVILLE/LOU CLOUDY    64  51  62 NW17G33   29.74R
FORT KNOX      FAIR      61  47  61 NW22G32   29.76R
$$

KYZ035>037-039>044-047>052-055>060-089>105-190200-
NORTHEAST KENTUCKY

CITY           SKY/WX    TMP DP  RH WIND       PRES   REMARKS
LEXINGTON      MOCLDY    69  55  60 SW21G30   29.67S
COVINGTON      LGT RAIN  60  50  69 NW28G35   29.68R
FRANKFORT      LGT RAIN  60  54  80 SW7       29.69R
$$

KYZ054-064>069-076>088-106>120-190200-
SOUTHEAST KENTUCKY

CITY           SKY/WX    TMP DP  RH WIND       PRES   REMARKS
JACKSON        FAIR      69  52  54 SW13G26   29.74R
LONDON         FAIR      69  53  56 SW14G28   29.79R
SOMERSET       NOT AVBL
MIDDLESBORO    FAIR      71  54  54 SW13G21   29.81R
MONTICELLO     FAIR      66  55  67 SW16G25   29.81S
$$





USA.gov is the U.S. government's official web portal to all federal, state and local government web resources and services.